Location: *
(32.3300°N, 34.8500°E)
Time: 10:52:28
(UTC+00:00)

CZ-4B DEB - Pass Details

Date: 22 October 2019
Orbit: 840 x 862 km, 99.1° (Epoch: 18 November)

Event Time Altitude Azimuth Distance (km) Brightness Sun altitude
Rises 02:44:12 0° 14° (NNE) 3,402 7.5 -14.4°
Reaches altitude 10° 02:46:34 10° 15° (NNE) 2,462 6.8 -13.9°
Maximum altitude 02:52:02 83° 103° (ESE) 849 4.3 -12.8°
Drops below altitude 10° 02:57:28 10° 192° (SSW) 2,446 6.5 -11.6°
Sets 02:59:49 0° 193° (SSW) 3,378 7.3 -11.1°
